Weather History for Pocatello, ID

Change the Weather History Date:

Wednesday, May 1, 2013

  Actual Average Record
Temperature  
Mean Temperature 40 °F 50 °F  
Max Temperature 53 °F 63 °F 85 °F (1985)
Min Temperature 26 °F 36 °F 20 °F (1972)
Degree Days  
Heating Degree Days 25 15  
Month to date heating degree days 25 15  
Since 1 July heating degree days 6551 6709  
Cooling Degree Days 0 0  
Month to date cooling degree days 0 0  
Year to date cooling degree days 0 0  
Moisture  
Dew Point 16 °F    
Average Humidity 52    
Maximum Humidity 89    
Minimum Humidity 14    
Precipitation  
Precipitation 0.00 in 0.05 in 0.61 in (1964)
Month to date precipitation 0.00 0.05  
Year to date precipitation 2.34 4.42  
Snow  
Snow 0.00 in - - ()
Month to date snowfall 0.0  
Since 1 July snowfall 37.8  
Snow Depth 0.00 in    
Sea Level Pressure  
Sea Level Pressure 30.39 in    
Wind  
Wind Speed 6 mph (NW)    
Max Wind Speed 15 mph    
Max Gust Speed 20 mph    
Visibility 9 miles    
Events Snow    
T = Trace of Precipitation, MM = Missing Value Source: NWS Daily Summary

Daily Weather History Graph

Daily Weather History Graph

Search for Another Location

Airport:

Trip Planner

Search our weather history database for the weather conditions in past years. The results will help you decide how hot, cold, wet, or windy it might be!

Date:

Astronomy

May. 01, 2013 Rise Set
Actual Time 6:23 AM MDT 8:31 PM MDT
Civil Twilight 5:52 AM MDT 9:02 PM MDT
Nautical Twilight 5:14 AM MDT 9:40 PM MDT
Astronomical Twilight 4:32 AM MDT 10:23 PM MDT
Moon 1:44 AM MDT (5/1) 12:06 PM MDT (5/1)
Length of Visible Light 15h 09m
Length of Day
14h 07m
Waning Gibbous, 58% of the Moon is Illuminated
May 1
Waning Gibbous
May 2
Last Quarter
May 9
New
May 17
First Quarter
May 24
Full

Hourly Weather History & Observations

Time (MDT) Temp. Windchill Dew Point Humidity Pressure Visibility Wind Dir Wind Speed Gust Speed Precip Events Conditions
12:14 AM 33.8 °F 25.8 °F 30.2 °F 87% 30.13 in 2.5 mi NE 10.4 mph - 0.00 in Snow Light Snow
12:24 AM 33.8 °F 25.8 °F 30.2 °F 87% 30.13 in 3.0 mi ENE 10.4 mph - 0.00 in Snow Light Snow
12:33 AM 33.8 °F 25.8 °F 30.2 °F 87% 30.13 in 7.0 mi East 10.4 mph - 0.00 in Snow Light Snow
12:53 AM 33.1 °F 26.9 °F 30.0 °F 89% 30.14 in 10.0 mi East 6.9 mph - 0.00 in   Overcast
1:53 AM 33.1 °F - 30.0 °F 89% 30.18 in 10.0 mi Calm Calm - N/A   Overcast
2:53 AM 30.9 °F 25.2 °F 25.0 °F 79% 30.19 in 10.0 mi NNE 5.8 mph - N/A   Partly Cloudy
3:53 AM 28.9 °F 23.9 °F 23.0 °F 78% 30.22 in 10.0 mi NNE 4.6 mph - N/A   Mostly Cloudy
4:53 AM 28.0 °F - 18.0 °F 66% 30.25 in 10.0 mi Calm Calm - N/A   Mostly Cloudy
5:53 AM 28.9 °F - 17.1 °F 61% 30.29 in 10.0 mi Calm Calm - N/A   Overcast
6:53 AM 28.0 °F 21.7 °F 16.0 °F 61% 30.35 in 10.0 mi NNW 5.8 mph - N/A   Scattered Clouds
7:53 AM 33.1 °F 27.7 °F 19.0 °F 56% 30.38 in 10.0 mi WSW 5.8 mph - N/A   Scattered Clouds
8:53 AM 33.1 °F 27.7 °F 27.0 °F 78% 30.41 in 10.0 mi SSW 5.8 mph - N/A   Scattered Clouds
9:53 AM 37.9 °F 32.7 °F 19.0 °F 47% 30.45 in 10.0 mi NW 6.9 mph - N/A   Mostly Cloudy
10:53 AM 39.9 °F 35.8 °F 14.0 °F 35% 30.46 in 10.0 mi ENE 5.8 mph - N/A   Mostly Cloudy
11:53 AM 42.1 °F 38.4 °F 14.0 °F 32% 30.46 in 10.0 mi Variable 5.8 mph - N/A   Mostly Cloudy
12:53 PM 46.0 °F 41.0 °F 14.0 °F 28% 30.46 in 10.0 mi WNW 10.4 mph 17.3 mph N/A   Mostly Cloudy
1:53 PM 48.0 °F - 12.0 °F 24% 30.45 in 10.0 mi WNW 9.2 mph 17.3 mph N/A   Scattered Clouds
2:53 PM 48.9 °F - 9.0 °F 20% 30.47 in 10.0 mi NW 8.1 mph - N/A   Scattered Clouds
3:53 PM 51.1 °F - 6.1 °F 16% 30.47 in 10.0 mi WNW 10.4 mph 18.4 mph N/A   Scattered Clouds
4:53 PM 51.1 °F - 3.9 °F 15% 30.46 in 10.0 mi Calm Calm - N/A   Scattered Clouds
5:53 PM 51.1 °F - 5.0 °F 15% 30.47 in 10.0 mi Variable 3.5 mph - N/A   Partly Cloudy
6:53 PM 52.0 °F - 3.0 °F 14% 30.47 in 10.0 mi WNW 4.6 mph - N/A   Partly Cloudy
7:53 PM 48.0 °F - 10.9 °F 22% 30.49 in 10.0 mi West 8.1 mph - N/A   Partly Cloudy
8:53 PM 41.0 °F 37.1 °F 15.1 °F 35% 30.54 in 10.0 mi West 5.8 mph - N/A   Clear
9:53 PM 34.0 °F 26.6 °F 12.9 °F 42% 30.58 in 10.0 mi South 9.2 mph - N/A   Clear
10:53 PM 36.0 °F 29.0 °F 10.9 °F 36% 30.59 in 10.0 mi South 9.2 mph - N/A   Clear
11:53 PM 34.0 °F 26.6 °F 10.9 °F 38% 30.61 in 10.0 mi South 9.2 mph - N/A   Clear